INMARSAT 3-F5
1 25153U 98006B   03064.83099755  .00000135  00000-0  10000-3 0  8530
2 25153   0.4578 353.8307 0004423 227.6819 265.8219  1.00270482 18656
HOT BIRD 4
1 25237U 98013A   03055.98151369  .00000074  00000-0  10000-3 0  3309
2 25237   0.0547 293.1775 0007524 338.0934 249.5459  1.00273950 18609
NOAA 15
1 25338U 98030A   03070.53345041  .00000269  00000-0  13530-3 0   360
2 25338  98.5493  92.1149 0009610 256.5347 103.4762 14.24254822250784
RESURS O1-N4
1 25394U 98043A   03070.22514169  .00000225  00000-0  11701-3 0  4679
2 25394  98.6289 147.7685 0002348  60.8611 299.2802 14.23885858242477
TMSAT
1 25396U 98043C   03069.91946701 -.00000043 +00000-0 +00000-0 0 09116
2 25396 098.6239 146.6262 0003890 091.6529 268.5102 14.23516109242423
TECHSAT 1B
1 25397U 98043D   03069.94920192 +.00000111 +00000-0 +68325-4 0 01638
2 25397 098.6179 145.5065 0002173 088.1178 272.0247 14.22964890242399
ASTRA 2A
1 25462U 98050A   03064.00000000  .00000141  00000-0  00000+0 0  5366
2 25462   0.0385 308.7109 0004824 280.8620 320.9573  1.00272094 16583
EUTELSAT W2
1 25491U 98056A   03068.82886807  .00000107  00000-0  00000+0 0  5862
2 25491   0.0043 231.9842 0003862 115.0272 134.4551  1.00274525 16248
HOT BIRD 5
1 25495U 98057A   03063.86782987  .00000123  00000-0  00000+0 0  5037
2 25495   0.0348 115.8222 0002188 119.7671 265.0383  1.00131550 16161
SEDSAT 1
1 25509U 98061B   03070.07378911  .00000755  00000-0  14061-3 0  7980
2 25509  31.4299  37.3664 0357344 121.8840 241.7113 14.27458961228244
PAN SAT
1 25520U 98064B   03069.46773755 +.00003881 +00000-0 +19795-3 0 06624
2 25520 028.4560 091.2949 0006169 206.3294 153.7002 15.13991464240606
ISS (ZARYA)
1 25544U 98067A   03070.50207176  .00030478  00000-0  37972-3 0  7685
2 25544  51.6347 150.8626 0011800 303.4173 256.8083 15.59566701245768
ORSTED
1 25635U 99008B   03070.51170502  .00001253  00000-0  32543-3 0  8516
2 25635  96.4526  51.7375 0143604 262.8712  95.6138 14.44884213212960
SUNSAT
1 25636U 99008C   03069.96545813 +.00000581 +00000-0 +16083-3 0 07877
2 25636 096.4565 049.9382 0147445 271.1420 087.2887 14.42976725212750
UOSAT 12
1 25693U 99021A   03070.14184063  .00000674  00000-0  11623-3 0  7769
2 25693  64.5593 307.8179 0022179 314.8181  45.1121 14.76415042209291
FENGYUN 1C
1 25730U 99025A   03069.99406576 -.00000017 +00000-0 +13600-4 0 08112
2 25730 098.6329 093.6276 0013776 307.2907 052.7009 14.11736113197515
ASTRA 1H
1 25785U 99033A   03064.00000000  .00000111  00000-0  10000-3 0  3748
2 25785   0.0122 319.8851 0002995  65.1991 156.4596  1.00273184 13641
TERRA
1 25994U 99068A   03070.32538436  .00000107  00000-0  33790-4 0  7717
2 25994  98.1953 146.2215 0000908  69.5143 290.6199 14.57091253171699
JAWSAT
1 26061U 00004A   03069.89848080  .00000774  00000-0  27447-3 0  7849
2 26061 100.2027 130.7334 0034866 221.5968 138.2559 14.37850389163450
OPAL
1 26063U 00004C   03070.18669816  .00000251  00000-0  10699-3 0  7383
2 26063 100.2069 128.5013 0036698 228.9356 130.8648 14.35490565163343
ASUSAT
1 26065U 00004E   03069.86436830  .00000276  00000-0  11562-3 0  7529
2 26065 100.2082 128.2768 0037014 230.3652 129.4259 14.35518933163299
GOES 11
1 26352U 00022A   03068.51136664 -.00000029  00000-0  10000-3 0   572
2 26352   0.1873 101.7936 0003256 206.0585 289.2370  1.00267417 10424
EUTELSAT W4
1 26369U 00028A   03067.95140297  .00000158  00000-0  00000+0 0  3592
2 26369   0.0454 358.4502 0002793 344.3540 201.9969  1.00274069 10233
FENGYUN 2B
1 26382U 00032A   03069.24921484 -.00000325  00000-0  00000+0 0  8098
2 26382   0.5156 288.7662 0001553 206.6890 226.1435  1.00266780  9916
EUTELSAT W1
1 26487U 00052A   03065.89376720  .00000066  00000-0  10000-3 0  3664
2 26487   0.0274 285.7402 0003825  55.4199 154.7436  1.00274466  9189
ASTRA 2B
1 26494U 00054A   03064.00000000  .00000141  00000-0  00000+0 0  2579
2 26494   0.0178 354.5658 0005000 302.8402 253.0807  1.00276704  9060
NOAA 16
1 26536U 00055A   03070.13284876  .00000424  00000-0  25650-3 0  2423
2 26536  98.9048  18.2677 0009805 247.0703 112.9458 14.11917131127052
SAUDISAT 1A
1 26545U 00057A   03069.83073907 +.00001373 +00000-0 +20058-3 0 04244
2 26545 064.5599 329.6479 0050733 235.4397 124.1882 14.79037476132227
UNISAT
1 26547U 00057C   03069.80641740 +.00002653 +00000-0 +36024-3 0 04454
2 26547 064.5590 331.8754 0057919 237.2176 122.3299 14.79840190132181
TIUNGSAT 1
1 26548U 00057D   03069.75433238 +.00002063 +00000-0 +27752-3 0 04284
2 26548 064.5587 322.5465 0044092 234.8018 124.8967 14.81343865132369
SAUDISAT 1B
1 26549U 00057E   03070.21971672  .00001636  00000-0  24030-3 0  7135
2 26549  64.5502 332.6679 0055111 235.4356 124.1538 14.77974849132197
AMSAT OSCAR 40
1 26609U 00072B   03070.09237754 -.00000207  00000-0  10000-3 0  3155
2 26609   8.2556  60.3595 7949525 152.2353 297.2195  1.25597176 10842
GOES 12
1 26871U 01031A   03069.34469878 -.00000197  00000-0  10000-3 0  8593
2 26871   0.2794 276.3331 0002205  22.1017 265.0775  1.00358870  6038
PCSAT
1 26931U 01043C   03069.89053303  .00000317  00000-0  15747-3 0  4216
2 26931  67.0460 203.2944 0005188 269.8980  90.1526 14.29127212 75257
SAPPHIRE
1 26932U 01043D   03070.21593807  .00000203  00000-0  11208-3 0  4169
2 26932  67.0562 202.1541 0004259 249.3700 110.6946 14.29303222 75322
ENVISAT
1 27386U 02009A   03069.94429843 -.00000523 +00000-0 -17774-3 0 09720
2 27386 098.5527 138.2068 0001027 086.7916 273.3387 14.32238394053661
IDEFIX/ARIANE 42P
1 27422U 02021B   03070.55307178  .00000349  00000-0  15844-3 0  2521
2 27422  98.6925 149.6533 0013409  88.1310 272.1407 14.27982057 44452
FENGYUN 1D
1 27431U 02024B   03070.54047239  .00000072  00000-0  65864-4 0  2343
2 27431  98.7639 118.9551 0016302  64.4618 295.8239 14.09180151 42321
NOAA 17
1 27453U 02032A   03070.37408701  .00000353  00000-0  17516-3 0  3334
2 27453  98.7522 141.4727 0011150 299.6975  60.3093 14.23307070 36925
HOT BIRD 6
1 27499U 02038A   03054.87288413  .00000075  00000-0  10000-3 0   703
2 27499   0.0150 173.7812 0009015 197.5701 109.1063  1.00270140  1885
RUBIN 2
1 27605U 02058A   03070.24190152  .00001002  00000-0  18144-3 0   792
2 27605  64.5509 134.4607 0035453 104.4719 256.0315 14.71407399 11854
